Time,TemperatureF,DewpointF,PressureIn,WindDirection,WindDirectionDegrees,WindSpeedMPH,WindSpeedGustMPH,Humidity,HourlyPrecipIn,Conditions,Clouds,dailyrainin,SoftwareType,DateUTC
2013-01-26 00:00:00,20.7,14.0,30.10,ESE,113,0.2,0.2,75,0.00,,,0.00,WUHU216HW,2013-01-26 05:00:00,
2013-01-26 00:01:00,20.5,13.8,30.10,SE,135,0.2,0.2,75,0.00,,,0.00,WUHU216HW,2013-01-26 05:01:00,
2013-01-26 00:06:00,20.5,13.8,30.10,East,90,0.0,0.2,75,0.00,,,0.00,WUHU216HW,2013-01-26 05:06:00,
2013-01-26 00:11:00,20.5,13.8,30.09,SSE,158,0.0,0.2,75,0.00,,,0.00,WUHU216HW,2013-01-26 05:11:00,
2013-01-26 00:16:00,20.5,13.8,30.09,SE,135,0.0,0.4,75,0.00,,,0.00,WUHU216HW,2013-01-26 05:16:00,
2013-01-26 00:21:00,20.9,14.1,30.10,SE,135,0.0,0.4,75,0.00,,,0.00,WUHU216HW,2013-01-26 05:21:00,
2013-01-26 00:26:00,20.9,14.1,30.10,SE,135,0.0,0.0,75,0.00,,,0.00,WUHU216HW,2013-01-26 05:26:00,
2013-01-26 00:31:00,20.9,14.1,30.10,SE,135,0.0,0.0,75,0.00,,,0.00,WUHU216HW,2013-01-26 05:31:00,
2013-01-26 00:53:00,20.9,14.1,30.10,SE,135,0.0,0.0,75,0.00,,,0.00,WUHU216HW,2013-01-26 05:53:00,
2013-01-26 00:58:00,20.9,14.1,30.10,SE,135,0.0,0.0,75,0.00,,,0.00,WUHU216HW,2013-01-26 05:58:00,
2013-01-26 01:03:00,21.1,14.3,30.10,SE,135,0.0,0.0,75,0.00,,,0.00,WUHU216HW,2013-01-26 06:03:00,
2013-01-26 01:08:00,21.1,14.1,30.10,SE,135,0.0,0.0,74,0.00,,,0.00,WUHU216HW,2013-01-26 06:08:00,
2013-01-26 01:13:00,21.1,14.3,30.10,SE,135,0.0,0.0,75,0.00,,,0.00,WUHU216HW,2013-01-26 06:13:00,
2013-01-26 01:18:00,21.1,14.3,30.10,SE,135,0.0,0.0,75,0.00,,,0.00,WUHU216HW,2013-01-26 06:18:00,
2013-01-26 01:23:00,21.1,14.3,30.10,SE,135,0.0,0.0,75,0.00,,,0.00,WUHU216HW,2013-01-26 06:23:00,
2013-01-26 01:28:00,21.2,14.8,30.11,SSW,203,0.0,0.0,76,0.00,,,0.00,WUHU216HW,2013-01-26 06:28:00,
2013-01-26 01:33:00,21.4,14.9,30.10,SE,135,0.0,0.0,76,0.00,,,0.00,WUHU216HW,2013-01-26 06:33:00,
2013-01-26 01:38:00,21.4,14.9,30.10,SE,135,0.0,0.2,76,0.00,,,0.00,WUHU216HW,2013-01-26 06:38:00,
2013-01-26 01:43:00,21.4,14.9,30.10,SW,225,0.0,0.2,76,0.00,,,0.00,WUHU216HW,2013-01-26 06:43:00,
2013-01-26 01:48:00,21.4,14.9,30.10,SE,135,0.0,0.2,76,0.00,,,0.00,WUHU216HW,2013-01-26 06:48:00,
2013-01-26 01:53:00,21.6,15.1,30.10,East,90,0.0,0.2,76,0.00,,,0.00,WUHU216HW,2013-01-26 06:53:00,
2013-01-26 01:58:00,21.4,14.7,30.10,WSW,248,0.0,0.0,75,0.00,,,0.00,WUHU216HW,2013-01-26 06:58:00,
2013-01-26 02:03:00,21.6,14.9,30.11,SSE,158,0.0,0.0,75,0.00,,,0.00,WUHU216HW,2013-01-26 07:03:00,
2013-01-26 02:08:00,21.8,15.3,30.11,SSW,203,0.0,0.0,76,0.00,,,0.00,WUHU216HW,2013-01-26 07:08:00,
2013-01-26 02:13:00,21.8,15.0,30.11,SSW,203,0.0,0.0,75,0.00,,,0.00,WUHU216HW,2013-01-26 07:13:00,
2013-01-26 02:18:00,21.6,14.9,30.12,SW,225,0.0,0.0,75,0.00,,,0.00,WUHU216HW,2013-01-26 07:18:00,
2013-01-26 02:23:00,21.8,15.0,30.12,SW,225,0.0,0.0,75,0.00,,,0.00,WUHU216HW,2013-01-26 07:23:00,
2013-01-26 02:28:00,22.0,15.2,30.12,SW,225,0.0,0.0,75,0.00,,,0.00,WUHU216HW,2013-01-26 07:28:00,
2013-01-26 02:33:00,21.8,15.0,30.12,ESE,113,0.0,0.0,75,0.00,,,0.00,WUHU216HW,2013-01-26 07:33:00,
2013-01-26 02:38:00,21.6,14.9,30.12,NNW,338,0.0,0.2,75,0.00,,,0.00,WUHU216HW,2013-01-26 07:38:00,
2013-01-26 02:43:00,21.2,14.5,30.12,NNW,338,0.0,0.2,75,0.00,,,0.00,WUHU216HW,2013-01-26 07:43:00,
2013-01-26 02:48:00,21.2,14.2,30.13,NNW,338,0.0,0.0,74,0.00,,,0.00,WUHU216HW,2013-01-26 07:48:00,
2013-01-26 02:53:00,21.2,14.8,30.13,NNW,338,0.0,0.2,76,0.00,,,0.00,WUHU216HW,2013-01-26 07:53:00,
2013-01-26 02:58:00,21.4,14.9,30.13,NNW,338,0.0,0.2,76,0.00,,,0.00,WUHU216HW,2013-01-26 07:58:00,
2013-01-26 03:03:00,21.6,15.1,30.13,NNW,338,0.0,0.0,76,0.00,,,0.00,WUHU216HW,2013-01-26 08:03:00,
2013-01-26 03:08:00,21.8,15.3,30.13,NNW,338,0.0,0.0,76,0.00,,,0.00,WUHU216HW,2013-01-26 08:08:00,
2013-01-26 03:13:00,22.0,15.2,30.13,NNW,338,0.0,0.0,75,0.00,,,0.00,WUHU216HW,2013-01-26 08:13:00,
2013-01-26 03:18:00,22.0,15.2,30.13,NNW,338,0.0,0.0,75,0.00,,,0.00,WUHU216HW,2013-01-26 08:18:00,
2013-01-26 03:23:00,22.0,15.2,30.13,West,270,0.0,0.0,75,0.00,,,0.00,WUHU216HW,2013-01-26 08:23:00,
2013-01-26 03:28:00,21.6,14.9,30.14,WSW,248,0.2,0.2,75,0.00,,,0.00,WUHU216HW,2013-01-26 08:28:00,
2013-01-26 03:33:00,21.6,14.9,30.14,WSW,248,0.0,0.2,75,0.00,,,0.00,WUHU216HW,2013-01-26 08:33:00,
2013-01-26 03:38:00,21.6,14.9,30.14,West,270,0.0,0.0,75,0.00,,,0.00,WUHU216HW,2013-01-26 08:38:00,
2013-01-26 03:43:00,21.6,15.1,30.14,WNW,293,0.0,0.4,76,0.00,,,0.00,WUHU216HW,2013-01-26 08:43:00,
2013-01-26 03:48:00,21.6,15.1,30.14,WSW,248,0.0,0.4,76,0.00,,,0.00,WUHU216HW,2013-01-26 08:48:00,
2013-01-26 03:53:00,21.4,14.9,30.14,West,270,0.0,0.0,76,0.00,,,0.00,WUHU216HW,2013-01-26 08:53:00,
2013-01-26 03:58:00,21.6,15.1,30.14,WSW,248,0.0,0.4,76,0.00,,,0.00,WUHU216HW,2013-01-26 08:58:00,
2013-01-26 04:03:00,21.6,15.1,30.14,WSW,248,0.0,0.4,76,0.00,,,0.00,WUHU216HW,2013-01-26 09:03:00,
2013-01-26 04:08:00,21.6,15.1,30.14,West,270,0.4,0.4,76,0.00,,,0.00,WUHU216HW,2013-01-26 09:08:00,
2013-01-26 04:13:00,21.4,14.9,30.14,NW,315,0.2,0.4,76,0.00,,,0.00,WUHU216HW,2013-01-26 09:13:00,
2013-01-26 04:18:00,21.6,15.1,30.14,SSW,203,0.0,0.2,76,0.00,,,0.00,WUHU216HW,2013-01-26 09:18:00,
2013-01-26 04:23:00,21.6,15.1,30.14,West,270,0.2,0.2,76,0.00,,,0.00,WUHU216HW,2013-01-26 09:23:00,
2013-01-26 04:28:00,21.4,14.9,30.14,WSW,248,0.0,0.4,76,0.00,,,0.00,WUHU216HW,2013-01-26 09:28:00,
2013-01-26 04:33:00,21.2,14.8,30.15,West,270,0.0,0.4,76,0.00,,,0.00,WUHU216HW,2013-01-26 09:33:00,
2013-01-26 04:38:00,21.4,14.9,30.15,WNW,293,0.0,0.7,76,0.00,,,0.00,WUHU216HW,2013-01-26 09:38:00,
2013-01-26 04:43:00,21.4,15.3,30.15,West,270,0.0,0.7,77,0.00,,,0.00,WUHU216HW,2013-01-26 09:43:00,
2013-01-26 04:48:00,21.4,15.3,30.15,NNW,338,0.2,0.4,77,0.00,,,0.00,WUHU216HW,2013-01-26 09:48:00,
2013-01-26 04:53:00,21.2,15.1,30.16,NW,315,0.0,0.2,77,0.00,,,0.00,WUHU216HW,2013-01-26 09:53:00,
2013-01-26 04:58:00,21.2,15.1,30.16,West,270,0.0,0.4,77,0.00,,,0.00,WUHU216HW,2013-01-26 09:58:00,
2013-01-26 05:03:00,21.2,15.1,30.16,SW,225,0.4,0.4,77,0.00,,,0.00,WUHU216HW,2013-01-26 10:03:00,
2013-01-26 05:08:00,21.2,15.1,30.16,West,270,0.2,1.1,77,0.00,,,0.00,WUHU216HW,2013-01-26 10:08:00,
2013-01-26 05:13:00,21.2,15.1,30.16,WNW,293,0.2,1.1,77,0.00,,,0.00,WUHU216HW,2013-01-26 10:13:00,
2013-01-26 05:18:00,21.2,15.1,30.16,WNW,293,0.7,0.9,77,0.00,,,0.00,WUHU216HW,2013-01-26 10:18:00,
2013-01-26 05:23:00,21.2,15.1,30.16,West,270,0.4,0.9,77,0.00,,,0.00,WUHU216HW,2013-01-26 10:23:00,
2013-01-26 05:28:00,21.2,15.1,30.17,WSW,248,0.0,0.7,77,0.00,,,0.00,WUHU216HW,2013-01-26 10:28:00,
2013-01-26 05:33:00,21.2,15.1,30.17,NW,315,0.4,0.7,77,0.00,,,0.00,WUHU216HW,2013-01-26 10:33:00,
2013-01-26 05:38:00,21.2,15.1,30.17,North,0,0.0,0.4,77,0.00,,,0.00,WUHU216HW,2013-01-26 10:38:00,
2013-01-26 05:43:00,21.6,15.5,30.17,West,270,0.4,0.4,77,0.00,,,0.00,WUHU216HW,2013-01-26 10:43:00,
2013-01-26 05:48:00,21.6,15.5,30.17,North,0,0.0,0.4,77,0.00,,,0.00,WUHU216HW,2013-01-26 10:48:00,
2013-01-26 05:53:00,21.6,15.5,30.17,West,270,0.7,0.7,77,0.00,,,0.00,WUHU216HW,2013-01-26 10:53:00,
2013-01-26 05:58:00,21.4,15.3,30.17,WSW,248,0.0,0.7,77,0.00,,,0.00,WUHU216HW,2013-01-26 10:58:00,
2013-01-26 06:03:00,21.2,15.1,30.18,West,270,0.0,0.4,77,0.00,,,0.00,WUHU216HW,2013-01-26 11:03:00,
2013-01-26 06:08:00,21.2,15.1,30.18,WSW,248,1.1,1.1,77,0.00,,,0.00,WUHU216HW,2013-01-26 11:08:00,
2013-01-26 06:13:00,21.2,15.4,30.18,NNW,338,0.0,1.1,78,0.00,,,0.00,WUHU216HW,2013-01-26 11:13:00,
2013-01-26 06:18:00,21.2,15.4,30.19,WNW,293,2.2,2.2,78,0.00,,,0.00,WUHU216HW,2013-01-26 11:18:00,
2013-01-26 06:23:00,21.1,15.2,30.19,NW,315,0.4,2.2,78,0.00,,,0.00,WUHU216HW,2013-01-26 11:23:00,
2013-01-26 06:28:00,21.1,15.2,30.19,WNW,293,0.4,1.8,78,0.00,,,0.00,WUHU216HW,2013-01-26 11:28:00,
2013-01-26 06:33:00,21.1,15.2,30.19,NNW,338,0.4,2.9,78,0.00,,,0.00,WUHU216HW,2013-01-26 11:33:00,
2013-01-26 06:38:00,21.1,15.2,30.20,North,0,1.1,2.9,78,0.00,,,0.00,WUHU216HW,2013-01-26 11:38:00,
2013-01-26 06:43:00,21.1,15.2,30.20,NNW,338,0.4,1.8,78,0.00,,,0.00,WUHU216HW,2013-01-26 11:43:00,
2013-01-26 06:48:00,21.1,15.2,30.20,WNW,293,0.2,1.8,78,0.00,,,0.00,WUHU216HW,2013-01-26 11:48:00,
2013-01-26 06:53:00,20.9,15.0,30.21,NW,315,0.2,0.9,78,0.00,,,0.00,WUHU216HW,2013-01-26 11:53:00,
2013-01-26 06:58:00,20.7,14.9,30.21,NW,315,0.0,1.8,78,0.00,,,0.00,WUHU216HW,2013-01-26 11:58:00,
2013-01-26 07:03:00,20.9,15.0,30.21,NNW,338,0.0,1.8,78,0.00,,,0.00,WUHU216HW,2013-01-26 12:03:00,
2013-01-26 07:08:00,20.9,15.0,30.21,NW,315,0.2,1.1,78,0.00,,,0.00,WUHU216HW,2013-01-26 12:08:00,
2013-01-26 07:13:00,20.9,15.0,30.22,NW,315,0.2,0.9,78,0.00,,,0.00,WUHU216HW,2013-01-26 12:13:00,
2013-01-26 07:18:00,20.9,15.0,30.22,West,270,0.2,0.9,78,0.00,,,0.00,WUHU216HW,2013-01-26 12:18:00,
2013-01-26 07:23:00,20.7,14.9,30.22,North,0,0.7,0.7,78,0.00,,,0.00,WUHU216HW,2013-01-26 12:23:00,
2013-01-26 07:28:00,20.9,15.0,30.22,North,0,0.0,0.7,78,0.00,,,0.00,WUHU216HW,2013-01-26 12:28:00,
2013-01-26 07:33:00,20.9,15.0,30.22,North,0,0.9,0.9,78,0.00,,,0.00,WUHU216HW,2013-01-26 12:33:00,
2013-01-26 07:38:00,20.9,15.0,30.22,NW,315,1.1,1.1,78,0.00,,,0.00,WUHU216HW,2013-01-26 12:38:00,
2013-01-26 07:43:00,20.9,15.0,30.22,NNW,338,0.4,1.1,78,0.00,,,0.00,WUHU216HW,2013-01-26 12:43:00,
2013-01-26 07:48:00,20.9,15.0,30.22,NW,315,0.0,0.4,78,0.00,,,0.00,WUHU216HW,2013-01-26 12:48:00,
2013-01-26 07:53:00,20.7,14.6,30.22,WNW,293,0.2,1.1,77,0.00,,,0.00,WUHU216HW,2013-01-26 12:53:00,
2013-01-26 07:58:00,20.9,14.8,30.22,North,0,0.2,1.1,77,0.00,,,0.00,WUHU216HW,2013-01-26 12:58:00,
2013-01-26 08:03:00,20.9,14.8,30.22,NNW,338,0.4,0.7,77,0.00,,,0.00,WUHU216HW,2013-01-26 13:03:00,
2013-01-26 08:08:00,20.7,14.6,30.23,NNW,338,0.0,0.7,77,0.00,,,0.00,WUHU216HW,2013-01-26 13:08:00,
2013-01-26 08:13:00,20.9,14.8,30.23,WNW,293,0.2,0.4,77,0.00,,,0.00,WUHU216HW,2013-01-26 13:13:00,
2013-01-26 08:18:00,20.9,14.4,30.24,West,270,0.0,0.2,76,0.00,,,0.00,WUHU216HW,2013-01-26 13:18:00,
2013-01-26 08:23:00,21.1,14.6,30.24,NNW,338,0.0,0.4,76,0.00,,,0.00,WUHU216HW,2013-01-26 13:23:00,
2013-01-26 08:28:00,20.9,14.4,30.24,NNW,338,0.0,1.1,76,0.00,,,0.00,WUHU216HW,2013-01-26 13:28:00,
2013-01-26 08:33:00,21.1,14.6,30.24,NNW,338,0.0,1.1,76,0.00,,,0.00,WUHU216HW,2013-01-26 13:33:00,
2013-01-26 08:38:00,20.9,14.4,30.24,North,0,0.4,1.3,76,0.00,,,0.00,WUHU216HW,2013-01-26 13:38:00,
2013-01-26 08:43:00,21.2,14.8,30.24,NW,315,0.7,1.3,76,0.00,,,0.00,WUHU216HW,2013-01-26 13:43:00,
2013-01-26 08:48:00,21.2,14.8,30.24,WNW,293,1.1,1.6,76,0.00,,,0.00,WUHU216HW,2013-01-26 13:48:00,
2013-01-26 08:53:00,21.4,15.3,30.24,NW,315,1.1,1.6,77,0.00,,,0.00,WUHU216HW,2013-01-26 13:53:00,
2013-01-26 08:58:00,21.6,15.5,30.25,NW,315,0.4,1.1,77,0.00,,,0.00,WUHU216HW,2013-01-26 13:58:00,
2013-01-26 09:03:00,22.0,15.9,30.25,West,270,1.3,2.5,77,0.00,,,0.00,WUHU216HW,2013-01-26 14:03:00,
2013-01-26 09:08:00,22.3,16.2,30.25,NW,315,0.4,2.5,77,0.00,,,0.00,WUHU216HW,2013-01-26 14:08:00,
2013-01-26 09:13:00,22.0,15.2,30.25,NNW,338,1.1,1.1,75,0.00,,,0.00,WUHU216HW,2013-01-26 14:13:00,
2013-01-26 09:18:00,22.0,15.5,30.25,South,180,0.4,1.3,76,0.00,,,0.00,WUHU216HW,2013-01-26 14:18:00,
2013-01-26 09:23:00,22.0,15.5,30.25,NW,315,0.4,2.5,76,0.00,,,0.00,WUHU216HW,2013-01-26 14:23:00,
2013-01-26 09:28:00,22.0,15.5,30.26,West,270,0.4,2.5,76,0.00,,,0.00,WUHU216HW,2013-01-26 14:28:00,
2013-01-26 09:33:00,22.0,15.5,30.26,NW,315,0.9,1.1,76,0.00,,,0.00,WUHU216HW,2013-01-26 14:33:00,
2013-01-26 09:38:00,22.1,15.7,30.26,West,270,0.4,1.1,76,0.00,,,0.00,WUHU216HW,2013-01-26 14:38:00,
2013-01-26 09:43:00,22.3,15.6,30.26,West,270,1.1,2.5,75,0.00,,,0.00,WUHU216HW,2013-01-26 14:43:00,
2013-01-26 09:48:00,22.1,15.4,30.27,West,270,1.8,2.9,75,0.00,,,0.00,WUHU216HW,2013-01-26 14:48:00,
2013-01-26 09:53:00,22.5,15.8,30.27,WNW,293,0.2,2.9,75,0.00,,,0.00,WUHU216HW,2013-01-26 14:53:00,
2013-01-26 09:58:00,22.5,15.5,30.27,NW,315,0.9,1.6,74,0.00,,,0.00,WUHU216HW,2013-01-26 14:58:00,
2013-01-26 10:03:00,22.5,15.5,30.28,West,270,0.4,3.4,74,0.00,,,0.00,WUHU216HW,2013-01-26 15:03:00,
2013-01-26 10:08:00,22.7,15.7,30.28,NNE,23,1.1,3.4,74,0.00,,,0.00,WUHU216HW,2013-01-26 15:08:00,
2013-01-26 10:13:00,22.7,15.7,30.28,NNW,338,0.4,3.1,74,0.00,,,0.00,WUHU216HW,2013-01-26 15:13:00,
2013-01-26 10:18:00,22.9,15.9,30.29,WSW,248,1.8,3.1,74,0.00,,,0.00,WUHU216HW,2013-01-26 15:18:00,
2013-01-26 10:23:00,23.0,15.7,30.29,WSW,248,3.1,4.3,73,0.00,,,0.00,WUHU216HW,2013-01-26 15:23:00,
2013-01-26 10:28:00,23.0,15.7,30.30,WNW,293,0.7,4.3,73,0.00,,,0.00,WUHU216HW,2013-01-26 15:28:00,
2013-01-26 10:33:00,23.2,15.8,30.30,WNW,293,0.9,2.0,73,0.00,,,0.00,WUHU216HW,2013-01-26 15:33:00,
2013-01-26 10:38:00,23.6,15.8,30.29,NW,315,0.4,2.0,72,0.00,,,0.00,WUHU216HW,2013-01-26 15:38:00,
2013-01-26 10:43:00,23.8,15.8,30.30,WNW,293,1.6,1.6,71,0.00,,,0.00,WUHU216HW,2013-01-26 15:43:00,
2013-01-26 10:48:00,24.1,16.0,30.30,North,0,1.1,1.6,71,0.00,,,0.00,WUHU216HW,2013-01-26 15:48:00,
2013-01-26 10:53:00,24.3,15.9,30.31,North,0,1.6,3.4,70,0.00,,,0.00,WUHU216HW,2013-01-26 15:53:00,
2013-01-26 10:58:00,24.5,16.0,30.31,WSW,248,0.4,3.4,70,0.00,,,0.00,WUHU216HW,2013-01-26 15:58:00,
2013-01-26 11:03:00,24.7,16.2,30.32,WSW,248,1.6,1.6,70,0.00,,,0.00,WUHU216HW,2013-01-26 16:03:00,
2013-01-26 11:08:00,24.8,16.0,30.32,WSW,248,0.7,1.8,69,0.00,,,0.00,WUHU216HW,2013-01-26 16:08:00,
2013-01-26 11:13:00,24.7,15.6,30.32,NNW,338,0.7,1.8,68,0.00,,,0.00,WUHU216HW,2013-01-26 16:13:00,
2013-01-26 11:18:00,24.5,15.8,30.32,NNW,338,1.6,2.7,69,0.00,,,0.00,WUHU216HW,2013-01-26 16:18:00,
2013-01-26 11:23:00,24.8,16.0,30.32,North,0,0.4,2.7,69,0.00,,,0.00,WUHU216HW,2013-01-26 16:23:00,
2013-01-26 11:28:00,24.8,16.0,30.32,SE,135,2.5,2.5,69,0.00,,,0.00,WUHU216HW,2013-01-26 16:28:00,
2013-01-26 11:33:00,25.0,16.2,30.32,West,270,2.2,2.5,69,0.00,,,0.00,WUHU216HW,2013-01-26 16:33:00,
2013-01-26 11:38:00,25.0,15.8,30.32,NW,315,0.4,2.2,68,0.00,,,0.00,WUHU216HW,2013-01-26 16:38:00,
2013-01-26 11:43:00,25.4,16.2,30.32,NNE,23,1.1,1.8,68,0.00,,,0.00,WUHU216HW,2013-01-26 16:43:00,
2013-01-26 11:48:00,25.9,16.7,30.32,NW,315,0.4,2.7,68,0.00,,,0.00,WUHU216HW,2013-01-26 16:48:00,
2013-01-26 11:53:00,26.1,16.6,30.32,NW,315,2.5,3.6,67,0.00,,,0.00,WUHU216HW,2013-01-26 16:53:00,
2013-01-26 11:58:00,25.9,16.4,30.32,West,270,2.5,3.6,67,0.00,,,0.00,WUHU216HW,2013-01-26 16:58:00,
2013-01-26 12:03:00,26.3,16.4,30.32,NNW,338,0.9,2.5,66,0.00,,,0.00,WUHU216HW,2013-01-26 17:03:00,
2013-01-26 12:08:00,26.6,16.7,30.32,NW,315,0.4,2.2,66,0.00,,,0.00,WUHU216HW,2013-01-26 17:08:00,
2013-01-26 12:13:00,26.6,16.7,30.33,North,0,0.9,2.7,66,0.00,,,0.00,WUHU216HW,2013-01-26 17:13:00,
2013-01-26 12:18:00,27.0,16.4,30.33,North,0,2.2,3.1,64,0.00,,,0.00,WUHU216HW,2013-01-26 17:18:00,
2013-01-26 12:23:00,26.5,15.5,30.33,NW,315,0.0,3.6,63,0.00,,,0.00,WUHU216HW,2013-01-26 17:23:00,
2013-01-26 12:28:00,26.5,15.8,30.33,NW,315,1.6,3.6,64,0.00,,,0.00,WUHU216HW,2013-01-26 17:28:00,
2013-01-26 12:33:00,26.3,15.7,30.33,West,270,0.7,1.8,64,0.00,,,0.00,WUHU216HW,2013-01-26 17:33:00,
2013-01-26 12:38:00,26.3,15.7,30.33,WSW,248,0.4,2.7,64,0.00,,,0.00,WUHU216HW,2013-01-26 17:38:00,
2013-01-26 12:43:00,26.8,16.6,30.33,NNW,338,2.7,2.7,65,0.00,,,0.00,WUHU216HW,2013-01-26 17:43:00,
2013-01-26 12:48:00,27.0,15.7,30.33,NNW,338,1.6,2.7,62,0.00,,,0.00,WUHU216HW,2013-01-26 17:48:00,
2013-01-26 12:53:00,27.4,16.0,30.33,NW,315,0.9,2.2,62,0.00,,,0.00,WUHU216HW,2013-01-26 17:53:00,
2013-01-26 12:58:00,27.0,15.7,30.33,NW,315,0.4,2.9,62,0.00,,,0.00,WUHU216HW,2013-01-26 17:58:00,
2013-01-26 13:03:00,26.6,15.7,30.33,NNW,338,0.7,2.9,63,0.00,,,0.00,WUHU216HW,2013-01-26 18:03:00,
2013-01-26 13:08:00,27.2,16.2,30.33,North,0,1.8,1.8,63,0.00,,,0.00,WUHU216HW,2013-01-26 18:08:00,
2013-01-26 13:13:00,27.9,16.6,30.34,North,0,2.5,2.5,62,0.00,,,0.00,WUHU216HW,2013-01-26 18:13:00,
2013-01-26 13:18:00,27.7,16.4,30.34,WSW,248,2.2,2.5,62,0.00,,,0.00,WUHU216HW,2013-01-26 18:18:00,
2013-01-26 13:23:00,27.2,15.8,30.34,WNW,293,0.4,2.2,62,0.00,,,0.00,WUHU216HW,2013-01-26 18:23:00,
2013-01-26 13:28:00,27.0,15.7,30.34,North,0,0.4,2.2,62,0.00,,,0.00,WUHU216HW,2013-01-26 18:28:00,
2013-01-26 13:33:00,27.4,16.0,30.33,ENE,68,0.4,1.6,62,0.00,,,0.00,WUHU216HW,2013-01-26 18:33:00,
2013-01-26 13:38:00,27.7,16.4,30.34,North,0,1.1,2.5,62,0.00,,,0.00,WUHU216HW,2013-01-26 18:38:00,
2013-01-26 13:43:00,27.7,16.4,30.34,NNE,23,2.2,2.5,62,0.00,,,0.00,WUHU216HW,2013-01-26 18:43:00,
2013-01-26 13:48:00,27.7,16.0,30.34,North,0,1.3,2.2,61,0.00,,,0.00,WUHU216HW,2013-01-26 18:48:00,
2013-01-26 13:53:00,27.9,16.6,30.34,NNW,338,2.9,3.6,62,0.00,,,0.00,WUHU216HW,2013-01-26 18:53:00,
2013-01-26 13:58:00,27.7,15.7,30.34,WSW,248,0.4,3.6,60,0.00,,,0.00,WUHU216HW,2013-01-26 18:58:00,
2013-01-26 14:03:00,27.5,15.5,30.34,North,0,0.4,2.7,60,0.00,,,0.00,WUHU216HW,2013-01-26 19:03:00,
2013-01-26 14:08:00,27.2,14.3,30.34,NNW,338,1.1,2.7,58,0.00,,,0.00,WUHU216HW,2013-01-26 19:08:00,
2013-01-26 14:13:00,27.2,14.7,30.34,NNW,338,0.4,2.0,59,0.00,,,0.00,WUHU216HW,2013-01-26 19:13:00,
2013-01-26 14:18:00,27.0,14.5,30.34,SSW,203,0.4,2.0,59,0.00,,,0.00,WUHU216HW,2013-01-26 19:18:00,
2013-01-26 14:23:00,26.8,14.8,30.35,NW,315,0.4,1.6,60,0.00,,,0.00,WUHU216HW,2013-01-26 19:23:00,
2013-01-26 14:28:00,27.0,15.3,30.35,West,270,1.1,1.6,61,0.00,,,0.00,WUHU216HW,2013-01-26 19:28:00,
2013-01-26 14:33:00,27.0,14.9,30.35,WNW,293,2.2,5.1,60,0.00,,,0.00,WUHU216HW,2013-01-26 19:33:00,
2013-01-26 14:38:00,26.8,14.3,30.35,NNW,338,0.4,5.1,59,0.00,,,0.00,WUHU216HW,2013-01-26 19:38:00,
2013-01-26 14:43:00,26.8,14.3,30.35,NNW,338,0.4,1.1,59,0.00,,,0.00,WUHU216HW,2013-01-26 19:43:00,
2013-01-26 15:00:00,27.7,14.9,30.36,WNW,293,0.0,0.0,58,0.00,,,0.00,WUHU216HW,2013-01-26 20:00:00,
2013-01-26 15:05:00,27.5,14.7,30.35,WNW,293,1.1,1.3,58,0.00,,,0.00,WUHU216HW,2013-01-26 20:05:00,
2013-01-26 15:10:00,27.4,14.0,30.36,NW,315,1.6,2.7,57,0.00,,,0.00,WUHU216HW,2013-01-26 20:10:00,
2013-01-26 15:15:00,27.4,14.9,30.35,NW,315,0.4,2.7,59,0.00,,,0.00,WUHU216HW,2013-01-26 20:15:00,
2013-01-26 15:20:00,27.5,14.7,30.36,NNE,23,2.5,2.7,58,0.00,,,0.00,WUHU216HW,2013-01-26 20:20:00,
2013-01-26 15:25:00,27.5,14.7,30.36,NW,315,1.1,2.7,58,0.00,,,0.00,WUHU216HW,2013-01-26 20:25:00,
2013-01-26 15:30:00,27.7,14.9,30.36,North,0,1.3,1.8,58,0.00,,,0.00,WUHU216HW,2013-01-26 20:30:00,
2013-01-26 15:35:00,27.7,14.1,30.36,North,0,1.3,2.5,56,0.00,,,0.00,WUHU216HW,2013-01-26 20:35:00,
2013-01-26 15:40:00,27.5,14.2,30.37,NNE,23,1.8,2.5,57,0.00,,,0.00,WUHU216HW,2013-01-26 20:40:00,
2013-01-26 15:45:00,27.4,13.2,30.36,NNW,338,0.4,3.1,55,0.00,,,0.00,WUHU216HW,2013-01-26 20:45:00,
2013-01-26 15:50:00,27.2,13.1,30.37,NW,315,1.1,3.1,55,0.00,,,0.00,WUHU216HW,2013-01-26 20:50:00,
2013-01-26 15:55:00,27.0,12.9,30.37,NNW,338,1.1,1.8,55,0.00,,,0.00,WUHU216HW,2013-01-26 20:55:00,
2013-01-26 16:00:00,27.0,13.3,30.38,West,270,0.2,1.1,56,0.00,,,0.00,WUHU216HW,2013-01-26 21:00:00,
2013-01-26 16:05:00,27.0,13.3,30.38,North,0,1.1,4.0,56,0.00,,,0.00,WUHU216HW,2013-01-26 21:05:00,
2013-01-26 16:10:00,26.8,12.7,30.38,North,0,0.4,4.0,55,0.00,,,0.00,WUHU216HW,2013-01-26 21:10:00,
2013-01-26 16:15:00,26.8,13.2,30.38,NNW,338,0.0,1.1,56,0.00,,,0.00,WUHU216HW,2013-01-26 21:15:00,
2013-01-26 16:20:00,27.0,13.3,30.38,North,0,0.2,1.1,56,0.00,,,0.00,WUHU216HW,2013-01-26 21:20:00,
2013-01-26 16:25:00,27.0,14.1,30.38,NW,315,0.0,1.1,58,0.00,,,0.00,WUHU216HW,2013-01-26 21:25:00,
2013-01-26 16:30:00,27.2,14.3,30.38,NNW,338,0.0,1.3,58,0.00,,,0.00,WUHU216HW,2013-01-26 21:30:00,
2013-01-26 16:35:00,27.2,14.3,30.39,North,0,0.4,1.3,58,0.00,,,0.00,WUHU216HW,2013-01-26 21:35:00,
2013-01-26 16:40:00,27.4,14.5,30.39,NNW,338,0.7,0.9,58,0.00,,,0.00,WUHU216HW,2013-01-26 21:40:00,
2013-01-26 16:45:00,27.2,13.9,30.39,North,0,0.0,1.1,57,0.00,,,0.00,WUHU216HW,2013-01-26 21:45:00,
2013-01-26 16:50:00,27.0,14.1,30.39,North,0,0.4,1.8,58,0.00,,,0.00,WUHU216HW,2013-01-26 21:50:00,
2013-01-26 16:55:00,27.0,14.1,30.39,NNW,338,1.3,1.8,58,0.00,,,0.00,WUHU216HW,2013-01-26 21:55:00,
2013-01-26 17:00:00,26.8,14.0,30.39,North,0,0.4,1.3,58,0.00,,,0.00,WUHU216HW,2013-01-26 22:00:00,
2013-01-26 17:05:00,27.0,14.5,30.39,NNW,338,0.0,0.7,59,0.00,,,0.00,WUHU216HW,2013-01-26 22:05:00,
2013-01-26 17:10:00,27.0,14.5,30.40,WNW,293,0.2,0.4,59,0.00,,,0.00,WUHU216HW,2013-01-26 22:10:00,
2013-01-26 17:15:00,27.0,14.5,30.40,NNW,338,0.0,0.7,59,0.00,,,0.00,WUHU216HW,2013-01-26 22:15:00,
2013-01-26 17:20:00,27.0,14.1,30.40,SW,225,0.7,0.7,58,0.00,,,0.00,WUHU216HW,2013-01-26 22:20:00,
2013-01-26 17:25:00,26.8,14.0,30.40,WNW,293,0.0,0.7,58,0.00,,,0.00,WUHU216HW,2013-01-26 22:25:00,
2013-01-26 17:30:00,26.8,14.3,30.40,NW,315,0.0,0.4,59,0.00,,,0.00,WUHU216HW,2013-01-26 22:30:00,
2013-01-26 17:35:00,26.6,14.1,30.41,NW,315,0.0,0.4,59,0.00,,,0.00,WUHU216HW,2013-01-26 22:35:00,
2013-01-26 17:40:00,26.6,14.1,30.41,NNW,338,0.0,0.4,59,0.00,,,0.00,WUHU216HW,2013-01-26 22:40:00,
2013-01-26 17:45:00,26.6,14.1,30.41,NNW,338,0.0,0.2,59,0.00,,,0.00,WUHU216HW,2013-01-26 22:45:00,
2013-01-26 17:50:00,26.5,14.1,30.42,NNW,338,0.0,0.2,59,0.00,,,0.00,WUHU216HW,2013-01-26 22:50:00,
2013-01-26 17:55:00,26.5,14.1,30.42,NNW,338,0.0,0.0,59,0.00,,,0.00,WUHU216HW,2013-01-26 22:55:00,
2013-01-26 18:00:00,26.3,13.9,30.42,North,0,0.0,0.2,59,0.00,,,0.00,WUHU216HW,2013-01-26 23:00:00,
2013-01-26 18:05:00,26.3,13.9,30.42,North,0,0.0,0.2,59,0.00,,,0.00,WUHU216HW,2013-01-26 23:05:00,
2013-01-26 18:10:00,26.3,13.9,30.42,North,0,0.0,0.0,59,0.00,,,0.00,WUHU216HW,2013-01-26 23:10:00,
2013-01-26 18:15:00,26.1,13.7,30.43,West,270,0.0,0.0,59,0.00,,,0.00,WUHU216HW,2013-01-26 23:15:00,
2013-01-26 18:19:00,25.9,13.5,30.43,West,270,0.0,0.0,59,0.00,,,0.00,WUHU216HW,2013-01-26 23:19:00,
2013-01-26 18:24:00,25.7,13.3,30.43,West,270,0.0,0.0,59,0.00,,,0.00,WUHU216HW,2013-01-26 23:24:00,
2013-01-26 18:29:00,25.7,13.3,30.43,West,270,0.0,0.0,59,0.00,,,0.00,WUHU216HW,2013-01-26 23:29:00,
2013-01-26 18:52:00,24.7,13.2,30.45,West,270,0.0,0.0,61,0.00,,,0.00,WUHU216HW,2013-01-26 23:52:00,
2013-01-26 18:57:00,24.7,13.2,30.45,West,270,0.0,0.0,61,0.00,,,0.00,WUHU216HW,2013-01-26 23:57:00,
2013-01-26 19:02:00,24.7,13.2,30.45,West,270,0.0,0.0,61,0.00,,,0.00,WUHU216HW,2013-01-27 00:02:00,
2013-01-26 19:07:00,24.5,13.0,30.45,West,270,0.0,0.0,61,0.00,,,0.00,WUHU216HW,2013-01-27 00:07:00,
2013-01-26 19:12:00,24.3,12.8,30.45,West,270,0.0,0.0,61,0.00,,,0.00,WUHU216HW,2013-01-27 00:12:00,
2013-01-26 19:17:00,24.1,12.6,30.45,West,270,0.0,0.0,61,0.00,,,0.00,WUHU216HW,2013-01-27 00:17:00,
2013-01-26 19:22:00,24.1,13.0,30.45,West,270,0.0,0.0,62,0.00,,,0.00,WUHU216HW,2013-01-27 00:22:00,
2013-01-26 19:27:00,23.9,12.8,30.45,West,270,0.0,0.0,62,0.00,,,0.00,WUHU216HW,2013-01-27 00:27:00,
2013-01-26 19:32:00,23.8,12.6,30.45,West,270,0.0,0.0,62,0.00,,,0.00,WUHU216HW,2013-01-27 00:32:00,
2013-01-26 19:37:00,23.6,12.4,30.45,West,270,0.0,0.0,62,0.00,,,0.00,WUHU216HW,2013-01-27 00:37:00,
2013-01-26 19:42:00,23.4,12.3,30.45,SSE,158,0.0,0.0,62,0.00,,,0.00,WUHU216HW,2013-01-27 00:42:00,
2013-01-26 19:47:00,23.0,11.9,30.45,SSW,203,0.0,0.0,62,0.00,,,0.00,WUHU216HW,2013-01-27 00:47:00,
2013-01-26 19:52:00,22.9,12.1,30.45,SW,225,0.0,0.0,63,0.00,,,0.00,WUHU216HW,2013-01-27 00:52:00,
2013-01-26 19:57:00,22.9,12.1,30.45,SW,225,0.0,0.0,63,0.00,,,0.00,WUHU216HW,2013-01-27 00:57:00,
2013-01-26 20:00:00,20.0,11.0,30.47,NW,315,0.0,0.7,68,0.00,,,0.00,WUHU216HW,2013-01-27 01:00:00,
2013-01-26 20:01:00,19.8,10.8,30.47,NW,315,0.0,0.7,68,0.00,,,0.00,WUHU216HW,2013-01-27 01:01:00,
2013-01-26 20:02:00,22.7,11.9,30.45,NNE,23,0.4,0.7,63,0.00,,,0.00,WUHU216HW,2013-01-27 01:02:00,
2013-01-26 20:03:00,19.8,10.8,30.47,NW,315,0.0,0.7,68,0.00,,,0.00,WUHU216HW,2013-01-27 01:03:00,
2013-01-26 20:04:00,19.8,10.8,30.48,NW,315,0.0,0.7,68,0.00,,,0.00,WUHU216HW,2013-01-27 01:04:00,
2013-01-26 20:05:00,19.8,10.8,30.48,NW,315,0.0,0.7,68,0.00,,,0.00,WUHU216HW,2013-01-27 01:05:00,
2013-01-26 20:06:00,19.8,10.8,30.48,NW,315,0.0,0.7,68,0.00,,,0.00,WUHU216HW,2013-01-27 01:06:00,
2013-01-26 20:07:00,22.5,11.7,30.45,North,0,0.0,0.7,63,0.00,,,0.00,WUHU216HW,2013-01-27 01:07:00,
2013-01-26 20:08:00,19.6,10.6,30.48,NW,315,0.0,0.7,68,0.00,,,0.00,WUHU216HW,2013-01-27 01:08:00,
2013-01-26 20:09:00,19.8,10.8,30.48,NW,315,0.0,0.7,68,0.00,,,0.00,WUHU216HW,2013-01-27 01:09:00,
2013-01-26 20:10:00,19.8,10.8,30.48,NW,315,0.0,0.7,68,0.00,,,0.00,WUHU216HW,2013-01-27 01:10:00,
2013-01-26 20:11:00,19.8,10.8,30.48,NW,315,0.0,0.4,68,0.00,,,0.00,WUHU216HW,2013-01-27 01:11:00,
2013-01-26 20:12:00,22.3,11.9,30.45,North,0,0.0,0.4,64,0.00,,,0.00,WUHU216HW,2013-01-27 01:12:00,
2013-01-26 20:13:00,19.8,10.8,30.48,NW,315,0.0,0.0,68,0.00,,,0.00,WUHU216HW,2013-01-27 01:13:00,
2013-01-26 20:14:00,19.8,10.8,30.48,NW,315,0.0,0.0,68,0.00,,,0.00,WUHU216HW,2013-01-27 01:14:00,
2013-01-26 20:15:00,19.8,10.8,30.48,NW,315,0.0,0.0,68,0.00,,,0.00,WUHU216HW,2013-01-27 01:15:00,
2013-01-26 20:16:00,19.8,10.8,30.48,NW,315,0.0,0.0,68,0.00,,,0.00,WUHU216HW,2013-01-27 01:16:00,
2013-01-26 20:17:00,22.3,11.9,30.45,North,0,0.0,0.0,64,0.00,,,0.00,WUHU216HW,2013-01-27 01:17:00,
2013-01-26 20:18:00,19.8,10.8,30.48,NW,315,0.0,0.0,68,0.00,,,0.00,WUHU216HW,2013-01-27 01:18:00,
2013-01-26 20:19:00,19.8,10.8,30.48,NW,315,0.0,0.0,68,0.00,,,0.00,WUHU216HW,2013-01-27 01:19:00,
2013-01-26 20:20:00,20.0,11.0,30.48,NW,315,0.0,0.0,68,0.00,,,0.00,WUHU216HW,2013-01-27 01:20:00,
2013-01-26 20:21:00,20.0,11.0,30.48,NW,315,0.0,0.0,68,0.00,,,0.00,WUHU216HW,2013-01-27 01:21:00,
2013-01-26 20:22:00,22.1,11.8,30.46,North,0,0.0,0.0,64,0.00,,,0.00,WUHU216HW,2013-01-27 01:22:00,
2013-01-26 20:23:00,20.0,11.3,30.48,NW,315,0.0,0.0,69,0.00,,,0.00,WUHU216HW,2013-01-27 01:23:00,
2013-01-26 20:24:00,20.2,11.5,30.48,NW,315,0.0,0.0,69,0.00,,,0.00,WUHU216HW,2013-01-27 01:24:00,
2013-01-26 20:25:00,20.2,11.2,30.48,NW,315,0.0,0.0,68,0.00,,,0.00,WUHU216HW,2013-01-27 01:25:00,
2013-01-26 20:26:00,20.2,11.5,30.48,NW,315,0.0,0.0,69,0.00,,,0.00,WUHU216HW,2013-01-27 01:26:00,
2013-01-26 20:27:00,22.0,11.6,30.45,NNE,23,0.0,0.0,64,0.00,,,0.00,WUHU216HW,2013-01-27 01:27:00,
2013-01-26 20:28:00,20.2,11.2,30.48,NW,315,0.0,0.0,68,0.00,,,0.00,WUHU216HW,2013-01-27 01:28:00,
2013-01-26 20:29:00,20.2,11.2,30.48,NW,315,0.0,0.0,68,0.00,,,0.00,WUHU216HW,2013-01-27 01:29:00,
2013-01-26 20:30:00,20.0,11.0,30.48,West,270,0.2,0.2,68,0.00,,,0.00,WUHU216HW,2013-01-27 01:30:00,
2013-01-26 20:31:00,20.0,11.0,30.48,West,270,0.0,0.2,68,0.00,,,0.00,WUHU216HW,2013-01-27 01:31:00,
2013-01-26 20:32:00,22.0,12.0,30.45,NNE,23,0.0,0.0,65,0.00,,,0.00,WUHU216HW,2013-01-27 01:32:00,
2013-01-26 20:33:00,20.0,11.0,30.48,West,270,0.0,0.2,68,0.00,,,0.00,WUHU216HW,2013-01-27 01:33:00,
2013-01-26 20:34:00,20.0,11.0,30.48,West,270,0.0,0.2,68,0.00,,,0.00,WUHU216HW,2013-01-27 01:34:00,
2013-01-26 20:35:00,19.8,10.8,30.48,West,270,0.0,0.2,68,0.00,,,0.00,WUHU216HW,2013-01-27 01:35:00,
2013-01-26 20:36:00,19.8,10.8,30.48,West,270,0.0,0.2,68,0.00,,,0.00,WUHU216HW,2013-01-27 01:36:00,
2013-01-26 20:37:00,19.8,10.8,30.48,West,270,0.0,0.2,68,0.00,,,0.00,WUHU216HW,2013-01-27 01:37:00,
2013-01-26 20:38:00,19.8,10.8,30.48,West,270,0.0,0.2,68,0.00,,,0.00,WUHU216HW,2013-01-27 01:38:00,
2013-01-26 20:39:00,19.8,10.8,30.48,West,270,0.0,0.2,68,0.00,,,0.00,WUHU216HW,2013-01-27 01:39:00,
2013-01-26 20:40:00,20.0,11.3,30.48,West,270,0.0,0.0,69,0.00,,,0.00,WUHU216HW,2013-01-27 01:40:00,
2013-01-26 20:41:00,20.0,11.0,30.48,West,270,0.0,0.0,68,0.00,,,0.00,WUHU216HW,2013-01-27 01:41:00,
2013-01-26 20:42:00,20.0,11.3,30.48,West,270,0.0,0.0,69,0.00,,,0.00,WUHU216HW,2013-01-27 01:42:00,
2013-01-26 20:43:00,19.8,10.8,30.48,West,270,0.0,0.0,68,0.00,,,0.00,WUHU216HW,2013-01-27 01:43:00,
2013-01-26 20:44:00,19.8,10.8,30.48,West,270,0.0,0.0,68,0.00,,,0.00,WUHU216HW,2013-01-27 01:44:00,
2013-01-26 20:45:00,19.8,10.8,30.48,West,270,0.0,0.0,68,0.00,,,0.00,WUHU216HW,2013-01-27 01:45:00,
2013-01-26 20:46:00,19.8,10.8,30.48,West,270,0.0,0.0,68,0.00,,,0.00,WUHU216HW,2013-01-27 01:46:00,
2013-01-26 20:47:00,19.8,10.8,30.48,West,270,0.0,0.0,68,0.00,,,0.00,WUHU216HW,2013-01-27 01:47:00,
2013-01-26 20:48:00,19.8,10.8,30.48,West,270,0.0,0.0,68,0.00,,,0.00,WUHU216HW,2013-01-27 01:48:00,
2013-01-26 20:49:00,19.8,10.8,30.49,West,270,0.0,0.0,68,0.00,,,0.00,WUHU216HW,2013-01-27 01:49:00,
2013-01-26 20:50:00,19.8,10.8,30.49,West,270,0.0,0.0,68,0.00,,,0.00,WUHU216HW,2013-01-27 01:50:00,
2013-01-26 20:51:00,19.8,10.8,30.49,West,270,0.0,0.0,68,0.00,,,0.00,WUHU216HW,2013-01-27 01:51:00,
2013-01-26 20:52:00,19.8,11.2,30.49,WSW,248,0.0,0.0,69,0.00,,,0.00,WUHU216HW,2013-01-27 01:52:00,
2013-01-26 20:53:00,19.8,11.2,30.49,WSW,248,0.0,0.0,69,0.00,,,0.00,WUHU216HW,2013-01-27 01:53:00,
2013-01-26 20:54:00,19.8,11.2,30.49,WSW,248,0.0,0.0,69,0.00,,,0.00,WUHU216HW,2013-01-27 01:54:00,
2013-01-26 20:55:00,19.8,11.2,30.49,WSW,248,0.0,0.0,69,0.00,,,0.00,WUHU216HW,2013-01-27 01:55:00,
2013-01-26 20:56:00,19.8,11.2,30.49,WSW,248,0.0,0.0,69,0.00,,,0.00,WUHU216HW,2013-01-27 01:56:00,
2013-01-26 20:57:00,19.8,11.2,30.49,WSW,248,0.0,0.0,69,0.00,,,0.00,WUHU216HW,2013-01-27 01:57:00,
2013-01-26 20:58:00,19.8,11.2,30.49,WSW,248,0.0,0.0,69,0.00,,,0.00,WUHU216HW,2013-01-27 01:58:00,
2013-01-26 20:59:00,19.8,11.2,30.49,WSW,248,0.0,0.0,69,0.00,,,0.00,WUHU216HW,2013-01-27 01:59:00,
2013-01-26 21:00:00,19.8,11.2,30.49,WSW,248,0.0,0.0,69,0.00,,,0.00,WUHU216HW,2013-01-27 02:00:00,
2013-01-26 21:01:00,19.8,11.2,30.49,WSW,248,0.0,0.0,69,0.00,,,0.00,WUHU216HW,2013-01-27 02:01:00,
2013-01-26 21:02:00,19.8,11.2,30.49,WSW,248,0.0,0.0,69,0.00,,,0.00,WUHU216HW,2013-01-27 02:02:00,
2013-01-26 21:03:00,19.6,11.0,30.49,WSW,248,0.0,0.0,69,0.00,,,0.00,WUHU216HW,2013-01-27 02:03:00,
2013-01-26 21:04:00,19.6,11.0,30.49,WSW,248,0.0,0.0,69,0.00,,,0.00,WUHU216HW,2013-01-27 02:04:00,
2013-01-26 21:05:00,19.6,11.0,30.49,WSW,248,0.0,0.0,69,0.00,,,0.00,WUHU216HW,2013-01-27 02:05:00,
2013-01-26 21:06:00,19.6,11.0,30.50,SE,135,0.2,0.2,69,0.00,,,0.00,WUHU216HW,2013-01-27 02:06:00,
2013-01-26 21:07:00,19.6,11.0,30.50,SE,135,0.2,0.2,69,0.00,,,0.00,WUHU216HW,2013-01-27 02:07:00,
2013-01-26 21:08:00,19.4,10.8,30.49,SE,135,0.0,0.2,69,0.00,,,0.00,WUHU216HW,2013-01-27 02:08:00,
2013-01-26 21:09:00,19.4,10.8,30.49,SE,135,0.0,0.2,69,0.00,,,0.00,WUHU216HW,2013-01-27 02:09:00,
2013-01-26 21:10:00,19.6,11.0,30.49,SE,135,0.0,0.2,69,0.00,,,0.00,WUHU216HW,2013-01-27 02:10:00,
2013-01-26 21:11:00,19.4,10.8,30.49,SE,135,0.0,0.2,69,0.00,,,0.00,WUHU216HW,2013-01-27 02:11:00,
2013-01-26 21:12:00,19.4,10.8,30.49,SE,135,0.0,0.2,69,0.00,,,0.00,WUHU216HW,2013-01-27 02:12:00,
2013-01-26 21:13:00,19.4,10.8,30.49,SE,135,0.0,0.2,69,0.00,,,0.00,WUHU216HW,2013-01-27 02:13:00,
2013-01-26 21:14:00,19.4,10.8,30.49,SE,135,0.2,0.2,69,0.00,,,0.00,WUHU216HW,2013-01-27 02:14:00,
2013-01-26 21:15:00,19.4,10.8,30.49,SSE,158,0.0,0.2,69,0.00,,,0.00,WUHU216HW,2013-01-27 02:15:00,
2013-01-26 21:16:00,19.4,10.8,30.49,SSE,158,0.0,0.2,69,0.00,,,0.00,WUHU216HW,2013-01-27 02:16:00,
2013-01-26 21:17:00,19.3,10.6,30.49,SSE,158,0.0,0.2,69,0.00,,,0.00,WUHU216HW,2013-01-27 02:17:00,
2013-01-26 21:18:00,19.3,10.6,30.49,SSE,158,0.0,0.2,69,0.00,,,0.00,WUHU216HW,2013-01-27 02:18:00,
2013-01-26 21:19:00,19.1,10.5,30.49,SSE,158,0.0,0.2,69,0.00,,,0.00,WUHU216HW,2013-01-27 02:19:00,
2013-01-26 21:20:00,19.1,10.5,30.49,SSE,158,0.0,0.2,69,0.00,,,0.00,WUHU216HW,2013-01-27 02:20:00,
2013-01-26 21:21:00,19.1,10.5,30.49,SSE,158,0.0,0.2,69,0.00,,,0.00,WUHU216HW,2013-01-27 02:21:00,
2013-01-26 21:22:00,19.1,10.5,30.49,SSE,158,0.0,0.2,69,0.00,,,0.00,WUHU216HW,2013-01-27 02:22:00,
2013-01-26 21:23:00,19.1,10.5,30.49,SSE,158,0.0,0.2,69,0.00,,,0.00,WUHU216HW,2013-01-27 02:23:00,
2013-01-26 21:24:00,19.1,10.5,30.49,SSE,158,0.0,0.0,69,0.00,,,0.00,WUHU216HW,2013-01-27 02:24:00,
2013-01-26 21:25:00,19.1,10.5,30.49,SSW,203,0.0,0.0,69,0.00,,,0.00,WUHU216HW,2013-01-27 02:25:00,
2013-01-26 21:26:00,19.1,10.5,30.49,SSW,203,0.0,0.0,69,0.00,,,0.00,WUHU216HW,2013-01-27 02:26:00,
2013-01-26 21:27:00,19.1,10.5,30.49,SSW,203,0.0,0.0,69,0.00,,,0.00,WUHU216HW,2013-01-27 02:27:00,
2013-01-26 21:28:00,19.1,10.5,30.49,SSW,203,0.0,0.0,69,0.00,,,0.00,WUHU216HW,2013-01-27 02:28:00,
2013-01-26 21:29:00,19.1,10.5,30.49,SSW,203,0.0,0.0,69,0.00,,,0.00,WUHU216HW,2013-01-27 02:29:00,
2013-01-26 21:30:00,19.1,10.5,30.49,SSW,203,0.0,0.0,69,0.00,,,0.00,WUHU216HW,2013-01-27 02:30:00,
2013-01-26 21:31:00,19.1,10.5,30.49,SSW,203,0.0,0.0,69,0.00,,,0.00,WUHU216HW,2013-01-27 02:31:00,
2013-01-26 21:32:00,19.1,10.5,30.49,SSW,203,0.0,0.0,69,0.00,,,0.00,WUHU216HW,2013-01-27 02:32:00,
2013-01-26 21:33:00,19.1,10.5,30.49,SSW,203,0.0,0.0,69,0.00,,,0.00,WUHU216HW,2013-01-27 02:33:00,
2013-01-26 21:34:00,19.1,10.5,30.49,SSW,203,0.0,0.0,69,0.00,,,0.00,WUHU216HW,2013-01-27 02:34:00,
2013-01-26 21:35:00,19.1,10.5,30.49,SSW,203,0.0,0.0,69,0.00,,,0.00,WUHU216HW,2013-01-27 02:35:00,
2013-01-26 21:36:00,19.1,10.5,30.49,SSW,203,0.0,0.0,69,0.00,,,0.00,WUHU216HW,2013-01-27 02:36:00,
2013-01-26 21:37:00,19.1,10.5,30.49,SSW,203,0.0,0.0,69,0.00,,,0.00,WUHU216HW,2013-01-27 02:37:00,
2013-01-26 21:38:00,18.9,10.4,30.49,SSW,203,0.0,0.0,69,0.00,,,0.00,WUHU216HW,2013-01-27 02:38:00,
2013-01-26 21:39:00,18.9,10.4,30.49,SSW,203,0.0,0.0,69,0.00,,,0.00,WUHU216HW,2013-01-27 02:39:00,
2013-01-26 21:40:00,18.9,10.4,30.49,SSW,203,0.0,0.0,69,0.00,,,0.00,WUHU216HW,2013-01-27 02:40:00,
2013-01-26 21:41:00,18.9,10.4,30.49,SSW,203,0.0,0.0,69,0.00,,,0.00,WUHU216HW,2013-01-27 02:41:00,
2013-01-26 21:42:00,18.9,10.4,30.49,SSW,203,0.0,0.0,69,0.00,,,0.00,WUHU216HW,2013-01-27 02:42:00,
2013-01-26 21:43:00,18.9,10.4,30.49,SSW,203,0.0,0.0,69,0.00,,,0.00,WUHU216HW,2013-01-27 02:43:00,
2013-01-26 21:44:00,18.7,10.2,30.49,SSW,203,0.0,0.0,69,0.00,,,0.00,WUHU216HW,2013-01-27 02:44:00,
2013-01-26 21:45:00,18.7,10.2,30.49,SSW,203,0.0,0.0,69,0.00,,,0.00,WUHU216HW,2013-01-27 02:45:00,
2013-01-26 21:46:00,18.7,10.2,30.49,SSW,203,0.0,0.0,69,0.00,,,0.00,WUHU216HW,2013-01-27 02:46:00,
2013-01-26 21:47:00,18.7,10.2,30.49,SSW,203,0.0,0.0,69,0.00,,,0.00,WUHU216HW,2013-01-27 02:47:00,
2013-01-26 21:48:00,18.7,10.2,30.49,SSW,203,0.0,0.0,69,0.00,,,0.00,WUHU216HW,2013-01-27 02:48:00,
2013-01-26 21:49:00,18.7,10.2,30.49,SSW,203,0.0,0.0,69,0.00,,,0.00,WUHU216HW,2013-01-27 02:49:00,
2013-01-26 21:50:00,18.7,10.2,30.49,SSW,203,0.0,0.0,69,0.00,,,0.00,WUHU216HW,2013-01-27 02:50:00,
2013-01-26 21:51:00,18.7,10.2,30.49,SSW,203,0.0,0.0,69,0.00,,,0.00,WUHU216HW,2013-01-27 02:51:00,
2013-01-26 21:52:00,18.7,10.2,30.49,SSW,203,0.0,0.0,69,0.00,,,0.00,WUHU216HW,2013-01-27 02:52:00,
2013-01-26 21:53:00,18.7,10.2,30.49,SSW,203,0.0,0.0,69,0.00,,,0.00,WUHU216HW,2013-01-27 02:53:00,
2013-01-26 21:54:00,18.7,10.2,30.49,SSW,203,0.0,0.0,69,0.00,,,0.00,WUHU216HW,2013-01-27 02:54:00,
2013-01-26 21:55:00,18.7,10.2,30.49,SSW,203,0.0,0.0,69,0.00,,,0.00,WUHU216HW,2013-01-27 02:55:00,
2013-01-26 21:56:00,18.7,10.2,30.49,SSW,203,0.0,0.0,69,0.00,,,0.00,WUHU216HW,2013-01-27 02:56:00,
2013-01-26 21:57:00,18.7,10.2,30.49,SSW,203,0.0,0.0,69,0.00,,,0.00,WUHU216HW,2013-01-27 02:57:00,
2013-01-26 21:58:00,18.7,10.2,30.49,SSW,203,0.0,0.0,69,0.00,,,0.00,WUHU216HW,2013-01-27 02:58:00,
2013-01-26 21:59:00,18.5,10.0,30.49,SSW,203,0.0,0.0,69,0.00,,,0.00,WUHU216HW,2013-01-27 02:59:00,
2013-01-26 22:00:00,18.5,10.0,30.49,SSW,203,0.0,0.0,69,0.00,,,0.00,WUHU216HW,2013-01-27 03:00:00,
2013-01-26 22:01:00,18.5,10.0,30.49,SSW,203,0.0,0.0,69,0.00,,,0.00,WUHU216HW,2013-01-27 03:01:00,
2013-01-26 22:02:00,18.5,10.0,30.49,SSW,203,0.0,0.0,69,0.00,,,0.00,WUHU216HW,2013-01-27 03:02:00,
2013-01-26 22:03:00,18.4,9.8,30.49,SSW,203,0.0,0.0,69,0.00,,,0.00,WUHU216HW,2013-01-27 03:03:00,
2013-01-26 22:04:00,18.4,9.8,30.49,SSW,203,0.0,0.0,69,0.00,,,0.00,WUHU216HW,2013-01-27 03:04:00,
2013-01-26 22:05:00,18.4,9.8,30.49,SSW,203,0.0,0.0,69,0.00,,,0.00,WUHU216HW,2013-01-27 03:05:00,
2013-01-26 22:06:00,18.4,9.8,30.49,SSW,203,0.0,0.0,69,0.00,,,0.00,WUHU216HW,2013-01-27 03:06:00,
2013-01-26 22:07:00,18.4,9.8,30.49,SSW,203,0.0,0.0,69,0.00,,,0.00,WUHU216HW,2013-01-27 03:07:00,
2013-01-26 22:08:00,18.4,9.8,30.49,SSW,203,0.0,0.0,69,0.00,,,0.00,WUHU216HW,2013-01-27 03:08:00,
2013-01-26 22:09:00,18.4,9.8,30.49,SSW,203,0.0,0.0,69,0.00,,,0.00,WUHU216HW,2013-01-27 03:09:00,
2013-01-26 22:10:00,18.4,9.8,30.49,SSW,203,0.0,0.0,69,0.00,,,0.00,WUHU216HW,2013-01-27 03:10:00,
2013-01-26 22:11:00,18.4,9.8,30.49,SSW,203,0.0,0.0,69,0.00,,,0.00,WUHU216HW,2013-01-27 03:11:00,
2013-01-26 22:12:00,18.4,9.8,30.49,SSW,203,0.0,0.0,69,0.00,,,0.00,WUHU216HW,2013-01-27 03:12:00,
2013-01-26 22:13:00,18.4,9.8,30.49,SSW,203,0.0,0.0,69,0.00,,,0.00,WUHU216HW,2013-01-27 03:13:00,
2013-01-26 22:14:00,18.4,9.8,30.49,SSW,203,0.0,0.0,69,0.00,,,0.00,WUHU216HW,2013-01-27 03:14:00,
2013-01-26 22:15:00,18.4,9.8,30.49,SSW,203,0.0,0.0,69,0.00,,,0.00,WUHU216HW,2013-01-27 03:15:00,
2013-01-26 22:16:00,18.4,9.8,30.49,SSW,203,0.0,0.0,69,0.00,,,0.00,WUHU216HW,2013-01-27 03:16:00,
2013-01-26 22:17:00,18.4,9.8,30.49,SSW,203,0.0,0.0,69,0.00,,,0.00,WUHU216HW,2013-01-27 03:17:00,
2013-01-26 22:18:00,18.4,10.2,30.49,SSW,203,0.0,0.0,70,0.00,,,0.00,WUHU216HW,2013-01-27 03:18:00,
2013-01-26 22:19:00,18.4,10.2,30.49,SSW,203,0.0,0.0,70,0.00,,,0.00,WUHU216HW,2013-01-27 03:19:00,
2013-01-26 22:20:00,18.4,10.2,30.49,SSW,203,0.0,0.0,70,0.00,,,0.00,WUHU216HW,2013-01-27 03:20:00,
2013-01-26 22:21:00,18.4,10.2,30.49,SSW,203,0.0,0.0,70,0.00,,,0.00,WUHU216HW,2013-01-27 03:21:00,
2013-01-26 22:22:00,18.4,10.2,30.49,SSW,203,0.0,0.0,70,0.00,,,0.00,WUHU216HW,2013-01-27 03:22:00,
2013-01-26 22:23:00,18.4,10.2,30.49,SSW,203,0.0,0.0,70,0.00,,,0.00,WUHU216HW,2013-01-27 03:23:00,
2013-01-26 22:24:00,18.5,10.4,30.49,SSW,203,0.0,0.0,70,0.00,,,0.00,WUHU216HW,2013-01-27 03:24:00,
2013-01-26 22:25:00,18.5,10.4,30.49,SSW,203,0.0,0.0,70,0.00,,,0.00,WUHU216HW,2013-01-27 03:25:00,
2013-01-26 22:26:00,18.5,10.4,30.49,SSW,203,0.0,0.0,70,0.00,,,0.00,WUHU216HW,2013-01-27 03:26:00,
2013-01-26 22:27:00,18.5,10.4,30.49,SSW,203,0.0,0.0,70,0.00,,,0.00,WUHU216HW,2013-01-27 03:27:00,
2013-01-26 22:28:00,18.5,10.4,30.50,SSW,203,0.0,0.0,70,0.00,,,0.00,WUHU216HW,2013-01-27 03:28:00,
2013-01-26 22:29:00,18.5,10.4,30.50,SSW,203,0.0,0.0,70,0.00,,,0.00,WUHU216HW,2013-01-27 03:29:00,
2013-01-26 22:30:00,18.5,10.4,30.50,SSW,203,0.0,0.0,70,0.00,,,0.00,WUHU216HW,2013-01-27 03:30:00,
2013-01-26 22:31:00,18.5,10.0,30.50,SSW,203,0.0,0.0,69,0.00,,,0.00,WUHU216HW,2013-01-27 03:31:00,
2013-01-26 22:32:00,18.5,10.4,30.50,SSW,203,0.0,0.0,70,0.00,,,0.00,WUHU216HW,2013-01-27 03:32:00,
2013-01-26 22:33:00,18.4,9.8,30.50,SSW,203,0.0,0.0,69,0.00,,,0.00,WUHU216HW,2013-01-27 03:33:00,
2013-01-26 22:34:00,18.4,9.8,30.50,SSW,203,0.0,0.0,69,0.00,,,0.00,WUHU216HW,2013-01-27 03:34:00,
2013-01-26 22:35:00,18.4,9.8,30.50,SSW,203,0.0,0.0,69,0.00,,,0.00,WUHU216HW,2013-01-27 03:35:00,
2013-01-26 22:36:00,18.4,9.8,30.50,SSW,203,0.0,0.0,69,0.00,,,0.00,WUHU216HW,2013-01-27 03:36:00,
2013-01-26 22:37:00,18.4,9.8,30.50,SSW,203,0.0,0.0,69,0.00,,,0.00,WUHU216HW,2013-01-27 03:37:00,
2013-01-26 22:38:00,18.4,9.8,30.50,SSW,203,0.0,0.0,69,0.00,,,0.00,WUHU216HW,2013-01-27 03:38:00,
2013-01-26 22:39:00,18.4,10.2,30.50,SSW,203,0.0,0.0,70,0.00,,,0.00,WUHU216HW,2013-01-27 03:39:00,
2013-01-26 22:40:00,18.4,10.2,30.50,SSW,203,0.0,0.0,70,0.00,,,0.00,WUHU216HW,2013-01-27 03:40:00,
2013-01-26 22:41:00,18.4,10.2,30.50,SSW,203,0.0,0.0,70,0.00,,,0.00,WUHU216HW,2013-01-27 03:41:00,
2013-01-26 22:42:00,18.4,10.2,30.50,SSW,203,0.0,0.0,70,0.00,,,0.00,WUHU216HW,2013-01-27 03:42:00,
2013-01-26 22:43:00,18.4,10.2,30.50,SSW,203,0.0,0.0,70,0.00,,,0.00,WUHU216HW,2013-01-27 03:43:00,
2013-01-26 22:44:00,18.4,10.2,30.50,SSW,203,0.0,0.0,70,0.00,,,0.00,WUHU216HW,2013-01-27 03:44:00,
2013-01-26 22:45:00,18.4,10.2,30.50,SSW,203,0.0,0.0,70,0.00,,,0.00,WUHU216HW,2013-01-27 03:45:00,
2013-01-26 22:46:00,18.4,10.2,30.50,SSW,203,0.0,0.0,70,0.00,,,0.00,WUHU216HW,2013-01-27 03:46:00,
2013-01-26 22:47:00,18.4,10.2,30.50,SSW,203,0.0,0.0,70,0.00,,,0.00,WUHU216HW,2013-01-27 03:47:00,
2013-01-26 22:48:00,18.4,10.2,30.50,SSW,203,0.0,0.0,70,0.00,,,0.00,WUHU216HW,2013-01-27 03:48:00,
2013-01-26 22:49:00,18.4,10.2,30.50,SSW,203,0.0,0.0,70,0.00,,,0.00,WUHU216HW,2013-01-27 03:49:00,
2013-01-26 22:50:00,18.4,10.2,30.50,SSW,203,0.0,0.0,70,0.00,,,0.00,WUHU216HW,2013-01-27 03:50:00,
2013-01-26 22:51:00,18.4,10.2,30.50,SSW,203,0.0,0.0,70,0.00,,,0.00,WUHU216HW,2013-01-27 03:51:00,
2013-01-26 22:52:00,18.4,10.2,30.50,SSW,203,0.0,0.0,70,0.00,,,0.00,WUHU216HW,2013-01-27 03:52:00,
2013-01-26 22:53:00,18.4,10.2,30.50,SSW,203,0.0,0.0,70,0.00,,,0.00,WUHU216HW,2013-01-27 03:53:00,
2013-01-26 22:54:00,18.4,10.2,30.50,SSW,203,0.0,0.0,70,0.00,,,0.00,WUHU216HW,2013-01-27 03:54:00,
2013-01-26 22:55:00,18.4,10.2,30.50,SSW,203,0.0,0.0,70,0.00,,,0.00,WUHU216HW,2013-01-27 03:55:00,
2013-01-26 22:56:00,18.4,10.2,30.50,SSW,203,0.0,0.0,70,0.00,,,0.00,WUHU216HW,2013-01-27 03:56:00,
2013-01-26 22:57:00,18.4,10.2,30.50,SSW,203,0.0,0.0,70,0.00,,,0.00,WUHU216HW,2013-01-27 03:57:00,
2013-01-26 22:58:00,18.4,10.2,30.50,SSW,203,0.0,0.0,70,0.00,,,0.00,WUHU216HW,2013-01-27 03:58:00,
2013-01-26 22:59:00,18.4,10.2,30.50,SSW,203,0.0,0.0,70,0.00,,,0.00,WUHU216HW,2013-01-27 03:59:00,
2013-01-26 23:00:00,18.4,10.2,30.50,SSW,203,0.0,0.0,70,0.00,,,0.00,WUHU216HW,2013-01-27 04:00:00,
2013-01-26 23:01:00,18.4,10.2,30.50,SSW,203,0.0,0.0,70,0.00,,,0.00,WUHU216HW,2013-01-27 04:01:00,
2013-01-26 23:02:00,18.4,10.2,30.50,SSW,203,0.0,0.0,70,0.00,,,0.00,WUHU216HW,2013-01-27 04:02:00,
2013-01-26 23:03:00,18.4,10.2,30.50,SSW,203,0.0,0.0,70,0.00,,,0.00,WUHU216HW,2013-01-27 04:03:00,
2013-01-26 23:04:00,18.4,10.2,30.50,SSW,203,0.0,0.0,70,0.00,,,0.00,WUHU216HW,2013-01-27 04:04:00,
2013-01-26 23:05:00,18.4,10.2,30.49,SSW,203,0.0,0.0,70,0.00,,,0.00,WUHU216HW,2013-01-27 04:05:00,
2013-01-26 23:06:00,18.2,10.0,30.49,SSW,203,0.0,0.0,70,0.00,,,0.00,WUHU216HW,2013-01-27 04:06:00,
2013-01-26 23:07:00,18.2,10.0,30.50,SSW,203,0.0,0.0,70,0.00,,,0.00,WUHU216HW,2013-01-27 04:07:00,
2013-01-26 23:08:00,18.2,10.0,30.50,SSW,203,0.0,0.0,70,0.00,,,0.00,WUHU216HW,2013-01-27 04:08:00,
2013-01-26 23:09:00,18.2,10.0,30.50,SSW,203,0.0,0.0,70,0.00,,,0.00,WUHU216HW,2013-01-27 04:09:00,
2013-01-26 23:11:00,18.2,10.0,30.50,West,270,0.0,0.0,70,0.00,,,0.00,WUHU216HW,2013-01-27 04:11:00,
2013-01-26 23:12:00,18.2,10.0,30.50,West,270,0.0,0.0,70,0.00,,,0.00,WUHU216HW,2013-01-27 04:12:00,
2013-01-26 23:13:00,18.2,10.0,30.50,West,270,0.0,0.0,70,0.00,,,0.00,WUHU216HW,2013-01-27 04:13:00,
2013-01-26 23:14:00,18.2,10.0,30.50,West,270,0.0,0.0,70,0.00,,,0.00,WUHU216HW,2013-01-27 04:14:00,
2013-01-26 23:15:00,18.0,9.9,30.51,West,270,0.0,0.0,70,0.00,,,0.00,WUHU216HW,2013-01-27 04:15:00,
2013-01-26 23:16:00,18.0,9.9,30.51,West,270,0.0,0.0,70,0.00,,,0.00,WUHU216HW,2013-01-27 04:16:00,
2013-01-26 23:17:00,18.0,9.9,30.51,West,270,0.0,0.0,70,0.00,,,0.00,WUHU216HW,2013-01-27 04:17:00,
2013-01-26 23:18:00,18.0,9.9,30.51,West,270,0.0,0.0,70,0.00,,,0.00,WUHU216HW,2013-01-27 04:18:00,
2013-01-26 23:19:00,18.0,9.9,30.51,West,270,0.0,0.0,70,0.00,,,0.00,WUHU216HW,2013-01-27 04:19:00,
2013-01-26 23:20:00,18.0,9.9,30.50,West,270,0.0,0.0,70,0.00,,,0.00,WUHU216HW,2013-01-27 04:20:00,
2013-01-26 23:21:00,17.8,9.7,30.50,West,270,0.0,0.0,70,0.00,,,0.00,WUHU216HW,2013-01-27 04:21:00,
2013-01-26 23:22:00,17.8,9.7,30.50,West,270,0.0,0.0,70,0.00,,,0.00,WUHU216HW,2013-01-27 04:22:00,
2013-01-26 23:23:00,17.6,9.5,30.50,West,270,0.0,0.0,70,0.00,,,0.00,WUHU216HW,2013-01-27 04:23:00,
2013-01-26 23:24:00,17.6,9.5,30.50,West,270,0.0,0.0,70,0.00,,,0.00,WUHU216HW,2013-01-27 04:24:00,
2013-01-26 23:25:00,17.6,9.5,30.49,West,270,0.0,0.0,70,0.00,,,0.00,WUHU216HW,2013-01-27 04:25:00,
2013-01-26 23:26:00,17.6,9.5,30.49,West,270,0.0,0.0,70,0.00,,,0.00,WUHU216HW,2013-01-27 04:26:00,
2013-01-26 23:27:00,17.6,9.5,30.49,West,270,0.0,0.0,70,0.00,,,0.00,WUHU216HW,2013-01-27 04:27:00,
2013-01-26 23:28:00,17.6,9.5,30.49,West,270,0.0,0.0,70,0.00,,,0.00,WUHU216HW,2013-01-27 04:28:00,
2013-01-26 23:29:00,17.6,9.5,30.49,West,270,0.0,0.0,70,0.00,,,0.00,WUHU216HW,2013-01-27 04:29:00,
2013-01-26 23:30:00,17.6,9.5,30.50,West,270,0.0,0.0,70,0.00,,,0.00,WUHU216HW,2013-01-27 04:30:00,
2013-01-26 23:31:00,17.6,9.5,30.50,West,270,0.0,0.0,70,0.00,,,0.00,WUHU216HW,2013-01-27 04:31:00,
2013-01-26 23:32:00,17.6,9.5,30.49,West,270,0.0,0.0,70,0.00,,,0.00,WUHU216HW,2013-01-27 04:32:00,
2013-01-26 23:33:00,17.6,9.5,30.49,West,270,0.0,0.0,70,0.00,,,0.00,WUHU216HW,2013-01-27 04:33:00,
2013-01-26 23:34:00,17.6,9.5,30.50,West,270,0.0,0.0,70,0.00,,,0.00,WUHU216HW,2013-01-27 04:34:00,
2013-01-26 23:35:00,17.6,9.5,30.50,West,270,0.0,0.0,70,0.00,,,0.00,WUHU216HW,2013-01-27 04:35:00,
2013-01-26 23:36:00,17.6,9.5,30.50,West,270,0.0,0.0,70,0.00,,,0.00,WUHU216HW,2013-01-27 04:36:00,
2013-01-26 23:37:00,17.6,9.5,30.50,West,270,0.0,0.0,70,0.00,,,0.00,WUHU216HW,2013-01-27 04:37:00,
2013-01-26 23:38:00,17.6,9.5,30.50,West,270,0.0,0.0,70,0.00,,,0.00,WUHU216HW,2013-01-27 04:38:00,
2013-01-26 23:39:00,17.6,9.5,30.50,West,270,0.0,0.0,70,0.00,,,0.00,WUHU216HW,2013-01-27 04:39:00,
2013-01-26 23:40:00,17.5,9.4,30.50,West,270,0.0,0.0,70,0.00,,,0.00,WUHU216HW,2013-01-27 04:40:00,
2013-01-26 23:41:00,17.5,9.4,30.50,West,270,0.0,0.0,70,0.00,,,0.00,WUHU216HW,2013-01-27 04:41:00,
2013-01-26 23:42:00,17.5,9.4,30.50,West,270,0.0,0.0,70,0.00,,,0.00,WUHU216HW,2013-01-27 04:42:00,
2013-01-26 23:43:00,17.3,9.2,30.50,West,270,0.0,0.0,70,0.00,,,0.00,WUHU216HW,2013-01-27 04:43:00,
2013-01-26 23:44:00,17.3,9.2,30.50,West,270,0.0,0.0,70,0.00,,,0.00,WUHU216HW,2013-01-27 04:44:00,
2013-01-26 23:45:00,17.3,9.2,30.50,West,270,0.0,0.0,70,0.00,,,0.00,WUHU216HW,2013-01-27 04:45:00,
2013-01-26 23:46:00,17.3,9.2,30.50,West,270,0.0,0.0,70,0.00,,,0.00,WUHU216HW,2013-01-27 04:46:00,
2013-01-26 23:47:00,17.3,9.2,30.50,West,270,0.0,0.0,70,0.00,,,0.00,WUHU216HW,2013-01-27 04:47:00,
2013-01-26 23:48:00,17.1,9.0,30.51,West,270,0.0,0.0,70,0.00,,,0.00,WUHU216HW,2013-01-27 04:48:00,
2013-01-26 23:49:00,17.1,9.0,30.51,West,270,0.0,0.0,70,0.00,,,0.00,WUHU216HW,2013-01-27 04:49:00,
2013-01-26 23:50:00,17.1,9.0,30.51,West,270,0.0,0.0,70,0.00,,,0.00,WUHU216HW,2013-01-27 04:50:00,
2013-01-26 23:51:00,17.1,9.0,30.51,West,270,0.0,0.0,70,0.00,,,0.00,WUHU216HW,2013-01-27 04:51:00,
2013-01-26 23:52:00,17.1,9.0,30.51,West,270,0.0,0.0,70,0.00,,,0.00,WUHU216HW,2013-01-27 04:52:00,
2013-01-26 23:53:00,17.1,9.0,30.51,West,270,0.2,0.2,70,0.00,,,0.00,WUHU216HW,2013-01-27 04:53:00,
2013-01-26 23:54:00,16.9,8.8,30.51,West,270,0.0,0.2,70,0.00,,,0.00,WUHU216HW,2013-01-27 04:54:00,
2013-01-26 23:55:00,16.9,9.1,30.51,West,270,0.0,0.2,71,0.00,,,0.00,WUHU216HW,2013-01-27 04:55:00,
2013-01-26 23:56:00,16.9,8.8,30.51,West,270,0.0,0.2,70,0.00,,,0.00,WUHU216HW,2013-01-27 04:56:00,
2013-01-26 23:57:00,16.9,9.1,30.51,West,270,0.0,0.2,71,0.00,,,0.00,WUHU216HW,2013-01-27 04:57:00,
2013-01-26 23:58:00,16.9,8.8,30.51,West,270,0.0,0.2,70,0.00,,,0.00,WUHU216HW,2013-01-27 04:58:00,
2013-01-26 23:59:00,16.9,9.1,30.51,West,270,0.0,0.2,71,0.00,,,0.00,WUHU216HW,2013-01-27 04:59:00,